Location: Goudex
(43.3760°N, 0.9543°E)
Time: 07:30:42
(UTC+00:00)

Meteor 2-20 - Pass Details

Date: 20 November 2019
Orbit: 940 x 958 km, 82.5° (Epoch: 13 December)

Event Time Altitude Azimuth Distance (km) Brightness Sun altitude
Exits shadow 04:04:46 59° 13° (NNE) 1,102 4.7 -30.8°
Maximum altitude 04:05:58 77° 81° (E) 984 4.5 -30.5°
Drops below altitude 10° 04:12:06 10° 167° (SSE) 2,673 6.9 -29.4°
Sets 04:14:35 0° 169° (S) 3,612 7.6 -29.0°
